Marion, SC

7:13 AM EDT on June 27, 2017 (GMT -0400)
Marion County

Weather History for KMAO - February, 2013

Change the Weather History Date:

Friday, February 22, 2013

  Actual Average (KFLO) Record (KFLO)
Temperature  
Mean Temperature 42 °F -  
Max Temperature 46 °F 62 °F 80 °F (1990)
Min Temperature 37 °F 40 °F 21 °F (1963)
Degree Days  
Heating Degree Days 24    
Moisture  
Dew Point 36 °F    
Average Humidity 83    
Maximum Humidity 100    
Minimum Humidity 57    
Precipitation  
Precipitation 0.08 in - - ()
Sea Level Pressure  
Sea Level Pressure 30.21 in    
Wind  
Wind Speed 7 mph (NE)    
Max Wind Speed 13 mph    
Max Gust Speed 17 mph    
Visibility 8 miles    
Events Rain    
Averages and records for this station are not official NWS values.
T = Trace of Precipitation, MM = Missing Value Source: NWS Daily Summary

Daily Weather History Graph

Daily Weather History Graph

Search for Another Location

Airport or City:

Trip Planner

Search our weather history database for the weather conditions in past years. The results will help you decide how hot, cold, wet, or windy it might be!

Date:

Astronomy

Feb. 22, 2013 Rise Set
Actual Time 6:54 AM EST 6:07 PM EST
Civil Twilight 6:28 AM EST 6:33 PM EST
Nautical Twilight 5:59 AM EST 7:02 PM EST
Astronomical Twilight 5:30 AM EST 7:31 PM EST
Moon 3:22 PM EST (2/22) 4:32 AM EST (2/22)
Length of Visible Light 12h 04m
Length of Day
11h 13m
Waxing Gibbous, 90% of the Moon is Illuminated
Feb 22
Waxing Gibbous
Feb 25
Full
Mar 4
Last Quarter
Mar 11
New
Mar 19
First Quarter

Hourly Weather History & Observations

Time (EST) Temp. Windchill Dew Point Humidity Pressure Visibility Wind Dir Wind Speed Gust Speed Precip Events Conditions
12:15 AM 46.4 °F 44.3 °F 32.0 °F 57% 30.21 in 10.0 mi ENE 4.6 mph - N/A   Clear
12:35 AM 44.6 °F 42.2 °F 32.0 °F 61% 30.22 in 10.0 mi ENE 4.6 mph - N/A   Clear
12:55 AM 44.6 °F 42.2 °F 32.0 °F 61% 30.23 in 10.0 mi NE 4.6 mph - N/A   Clear
1:15 AM 42.8 °F 38.0 °F 32.0 °F 66% 30.24 in 10.0 mi NE 8.1 mph - N/A   Clear
1:55 AM 42.8 °F 38.6 °F 32.0 °F 66% 30.24 in 10.0 mi NE 6.9 mph - N/A   Mostly Cloudy
2:15 AM 42.8 °F 37.0 °F 32.0 °F 66% 30.23 in 10.0 mi NE 10.4 mph - N/A   Scattered Clouds
2:35 AM 42.8 °F 37.0 °F 30.2 °F 61% 30.22 in 10.0 mi NE 10.4 mph - N/A   Clear
2:55 AM 42.8 °F 38.0 °F 30.2 °F 61% 30.25 in 10.0 mi NNE 8.1 mph - N/A   Clear
3:15 AM 42.8 °F 37.5 °F 30.2 °F 61% 30.26 in 10.0 mi NE 9.2 mph - N/A   Clear
3:35 AM 42.8 °F 37.5 °F 30.2 °F 61% 30.27 in 10.0 mi NE 9.2 mph - N/A   Clear
3:55 AM 42.8 °F 37.5 °F 30.2 °F 61% 30.28 in 10.0 mi NE 9.2 mph - N/A   Clear
4:15 AM 42.8 °F 37.0 °F 28.4 °F 57% 30.27 in 10.0 mi NE 10.4 mph 16.1 mph N/A   Clear
4:35 AM 42.8 °F 36.6 °F 28.4 °F 57% 30.27 in 10.0 mi ENE 11.5 mph - N/A   Clear
4:55 AM 42.8 °F 36.2 °F 28.4 °F 57% 30.28 in 10.0 mi NE 12.7 mph - N/A   Clear
5:15 AM 42.8 °F 37.0 °F 28.4 °F 57% 30.27 in 10.0 mi ENE 10.4 mph 17.3 mph N/A   Scattered Clouds
5:35 AM 42.8 °F 38.0 °F 28.4 °F 57% 30.28 in 10.0 mi ENE 8.1 mph - N/A   Mostly Cloudy
5:55 AM 42.8 °F 37.0 °F 28.4 °F 57% 30.27 in 10.0 mi East 10.4 mph 16.1 mph N/A   Overcast
6:15 AM 42.8 °F 38.0 °F 28.4 °F 57% 30.27 in 10.0 mi East 8.1 mph - N/A   Overcast
6:35 AM 42.8 °F 37.0 °F 28.4 °F 57% 30.26 in 10.0 mi ENE 10.4 mph - N/A   Mostly Cloudy
6:55 AM 42.8 °F 38.0 °F 28.4 °F 57% 30.27 in 10.0 mi ENE 8.1 mph - N/A   Overcast
7:15 AM 42.8 °F 37.5 °F 28.4 °F 57% 30.28 in 10.0 mi ENE 9.2 mph - N/A   Overcast
7:35 AM 41.0 °F 35.8 °F 28.4 °F 61% 30.27 in 10.0 mi East 8.1 mph - N/A   Light Drizzle
7:55 AM 41.0 °F 36.4 °F 30.2 °F 65% 30.27 in 10.0 mi ENE 6.9 mph - N/A Rain Light Rain
8:15 AM 39.2 °F 34.2 °F 32.0 °F 75% 30.26 in 7.0 mi East 6.9 mph - N/A Rain Light Rain
8:35 AM 37.4 °F 33.8 °F 33.8 °F 87% 30.26 in 10.0 mi NE 4.6 mph - N/A Rain Light Rain
8:55 AM 37.4 °F 33.8 °F 33.8 °F 87% 30.28 in 10.0 mi ENE 4.6 mph - 0.01 in Rain Light Rain
9:15 AM 39.2 °F 33.6 °F 33.8 °F 81% 30.27 in 10.0 mi NE 8.1 mph - N/A Rain Light Rain
9:35 AM 39.2 °F 35.9 °F 33.8 °F 81% 30.28 in 10.0 mi East 4.6 mph - 0.01 in Rain Light Rain
9:55 AM 37.4 °F 33.8 °F 35.6 °F 93% 30.27 in 10.0 mi ENE 4.6 mph - 0.03 in Rain Light Rain
10:15 AM 39.2 °F 34.2 °F 35.6 °F 87% 30.24 in 10.0 mi East 6.9 mph - N/A Rain Light Rain
10:35 AM 39.2 °F 33.6 °F 35.6 °F 87% 30.26 in 10.0 mi East 8.1 mph - N/A   Overcast
10:55 AM 39.2 °F 34.2 °F 35.6 °F 87% 30.25 in 10.0 mi ENE 6.9 mph - N/A   Overcast
11:35 AM 39.2 °F 33.6 °F 37.4 °F 93% 30.25 in 10.0 mi NE 8.1 mph - N/A   Overcast
11:55 AM 41.0 °F 35.8 °F 37.4 °F 87% 30.25 in 10.0 mi ENE 8.1 mph - N/A Rain Light Rain
12:15 PM 41.0 °F 35.2 °F 37.4 °F 87% 30.24 in 5.0 mi NE 9.2 mph - 0.01 in   Drizzle
12:35 PM 41.0 °F 35.8 °F 37.4 °F 87% 30.23 in 7.0 mi NE 8.1 mph - 0.01 in   Light Drizzle
12:55 PM 39.2 °F 33.6 °F 37.4 °F 93% 30.21 in 4.0 mi ENE 8.1 mph - 0.01 in Rain Light Rain
1:15 PM 41.0 °F 36.4 °F 39.2 °F 93% 30.20 in 10.0 mi NE 6.9 mph - N/A   Overcast
1:35 PM 41.0 °F 36.4 °F 39.2 °F 93% 30.20 in 10.0 mi NNE 6.9 mph - N/A   Overcast
1:55 PM 41.0 °F 35.8 °F 41.0 °F 100% 30.18 in 10.0 mi NE 8.1 mph - N/A   Overcast
2:15 PM 41.0 °F 36.4 °F 41.0 °F 100% 30.18 in 10.0 mi NE 6.9 mph - N/A   Overcast
2:35 PM 41.0 °F 35.8 °F 41.0 °F 100% 30.17 in 10.0 mi NNE 8.1 mph - N/A   Overcast
2:55 PM 41.0 °F 35.8 °F 41.0 °F 100% 30.18 in 10.0 mi NNE 8.1 mph - N/A   Overcast
3:15 PM 42.8 °F 39.3 °F 41.0 °F 93% 30.16 in 10.0 mi NE 5.8 mph - N/A   Overcast
3:35 PM 42.8 °F 37.5 °F 41.0 °F 93% 30.15 in 10.0 mi ENE 9.2 mph - N/A   Overcast
3:55 PM 42.8 °F 39.3 °F 41.0 °F 93% 30.15 in 10.0 mi NE 5.8 mph - N/A   Overcast
4:15 PM 42.8 °F 38.0 °F 41.0 °F 93% 30.16 in 7.0 mi NE 8.1 mph - N/A   Overcast
4:35 PM 42.8 °F 40.1 °F 41.0 °F 93% 30.17 in 10.0 mi NNW 4.6 mph - N/A   Overcast
4:55 PM 42.8 °F 38.6 °F 41.0 °F 93% 30.16 in 5.0 mi North 6.9 mph - N/A Rain Heavy Rain
5:15 PM 41.0 °F 37.1 °F 41.0 °F 100% 30.15 in 4.0 mi North 5.8 mph - N/A   Heavy Drizzle
5:35 PM 41.0 °F 36.4 °F 41.0 °F 100% 30.15 in 3.0 mi North 6.9 mph - 0.02 in   Drizzle
5:55 PM 41.0 °F 36.4 °F 41.0 °F 100% 30.15 in 5.0 mi North 6.9 mph - 0.02 in   Light Drizzle
6:15 PM 41.0 °F 35.2 °F 41.0 °F 100% 30.15 in 5.0 mi North 9.2 mph - N/A   Drizzle
6:35 PM 41.0 °F 35.8 °F 41.0 °F 100% 30.14 in 4.0 mi NNE 8.1 mph - N/A Rain Heavy Rain
6:55 PM 41.0 °F 35.2 °F 41.0 °F 100% 30.15 in 5.0 mi North 9.2 mph - 0.01 in   Drizzle
7:15 PM 41.0 °F 34.7 °F 41.0 °F 100% 30.15 in 4.0 mi North 10.4 mph - N/A Rain Rain
7:35 PM 41.0 °F 36.4 °F 41.0 °F 100% 30.15 in 4.0 mi NNE 6.9 mph - N/A   Drizzle
7:55 PM 41.0 °F 35.8 °F 41.0 °F 100% 30.15 in 4.0 mi North 8.1 mph - N/A   Drizzle
8:15 PM 41.0 °F 35.8 °F 41.0 °F 100% 30.15 in 5.0 mi NNE 8.1 mph - N/A   Light Drizzle
8:35 PM 41.0 °F 35.2 °F 41.0 °F 100% 30.14 in 5.0 mi NNE 9.2 mph - N/A   Overcast
8:55 PM 41.0 °F 37.1 °F 41.0 °F 100% 30.14 in 4.0 mi NNE 5.8 mph - N/A   Overcast
9:15 PM 41.0 °F 36.4 °F 41.0 °F 100% 30.13 in 4.0 mi NE 6.9 mph - N/A   Overcast
9:35 PM 41.0 °F 36.4 °F 41.0 °F 100% 30.13 in 4.0 mi NNE 6.9 mph - N/A   Overcast
9:55 PM 41.0 °F 36.4 °F 41.0 °F 100% 30.14 in 4.0 mi North 6.9 mph - N/A   Overcast
10:15 PM 41.0 °F 37.1 °F 41.0 °F 100% 30.14 in 3.0 mi North 5.8 mph - N/A   Overcast
10:35 PM 41.0 °F 35.8 °F 41.0 °F 100% 30.13 in 3.0 mi North 8.1 mph - N/A   Overcast
10:55 PM 41.0 °F 35.8 °F 41.0 °F 100% 30.12 in 2.5 mi North 8.1 mph - N/A   Overcast
11:15 PM 41.0 °F 36.4 °F 41.0 °F 100% 30.11 in 2.5 mi North 6.9 mph - N/A   Overcast
11:35 PM 41.0 °F 37.1 °F 41.0 °F 100% 30.10 in 2.0 mi North 5.8 mph - N/A   Overcast
11:55 PM 41.0 °F 38.0 °F 41.0 °F 100% 30.10 in 1.5 mi North 4.6 mph - N/A   Overcast